^^
Datos históricos de la estación: Murcia-Puente Tocinos
 
Diario Informe para Agosto 31, 2026 Unidades:  Métrico    Inglés   Ambas
Diario Semanal Mensual Anual
  Actual: Máxima: Mínima: Promedio:
Temperatura: 23.1 °C 24.3 °C 23.1 °C 23.6 °C
Punto de rocio: 19.1 °C 19.1 °C 18.9 °C 19.1 °C
Humedad: 78% 78% 72% 76%
Velocidad viento: 3.7km/h 6.8km/h 1.3km/h 4.6km/h
Racha viento: 2.3km/h 3.9km/h - -
VientoNorth - - NNE
Presión: 1016.7 hPa 1016.9 hPa 1016.5 hPa -
Precipitación: 0.0 mm      
 
 
Tabla de datos para Agosto 31, 2026
Hora Temperatura Punto de rocio Presión Viento Velocidad viento Racha viento Humedad Intensidad lluvia(por hora) Nubes
00:04 24.3 °C 18.9 °C 1016.5 hPa NNE 5.4 km/h 3.9 km/h 72% 0.0 mm
00:09 24.3 °C 18.9 °C 1016.7 hPa NNE 4.8 km/h 3.9 km/h 72% 0.0 mm
00:14 24.2 °C 18.9 °C 1016.7 hPa NNE 5.5 km/h 3.9 km/h 72.4% 0.0 mm
00:19 24.2 °C 19.1 °C 1016.7 hPa NNE 5.4 km/h 3.2 km/h 73% 0.0 mm
00:24 24.1 °C 19 °C 1016.7 hPa NNE 5.2 km/h 3.2 km/h 73% 0.0 mm
00:29 24.1 °C 19.1 °C 1016.7 hPa NNE 6.4 km/h 3.2 km/h 73.7% 0.0 mm
00:34 24 °C 19 °C 1016.7 hPa ENE 6.8 km/h 3.9 km/h 74% 0.0 mm
00:39 23.9 °C 19.1 °C 1016.9 hPa NNE 6 km/h 3.9 km/h 74.5% 0.0 mm
00:44 23.8 °C 19.1 °C 1016.9 hPa NE 6.6 km/h 3.9 km/h 75% 0.0 mm
00:49 23.7 °C 19 °C 1016.9 hPa NNE 5.2 km/h 3.9 km/h 75% 0.0 mm
00:54 23.7 °C 19.1 °C 1016.9 hPa NNE 5 km/h 3.9 km/h 75.5% 0.0 mm
00:59 23.6 °C 19.1 °C 1016.9 hPa NNE 3.8 km/h 3.9 km/h 76% 0.0 mm
01:04 23.6 °C 19.1 °C 1016.9 hPa NNE 3.9 km/h 3.9 km/h 76% 0.0 mm
01:09 23.6 °C 19.1 °C 1016.9 hPa NNE 4.2 km/h 2.9 km/h 76% 0.0 mm
01:14 23.5 °C 19 °C 1016.8 hPa NNE 4.3 km/h 2.9 km/h 76.1% 0.0 mm
01:19 23.4 °C 19.1 °C 1016.8 hPa NNE 4.3 km/h 2.9 km/h 77% 0.0 mm
01:24 23.4 °C 19.1 °C 1016.8 hPa NNE 4.7 km/h 2.9 km/h 77% 0.0 mm
01:29 23.3 °C 19.1 °C 1016.8 hPa North 4.1 km/h 2.9 km/h 77% 0.0 mm
01:34 23.3 °C 19.1 °C 1016.8 hPa North 4.3 km/h 2.9 km/h 77% 0.0 mm
01:39 23.3 °C 19 °C 1016.8 hPa North 4.1 km/h 2.9 km/h 77% 0.0 mm
01:44 23.2 °C 18.9 °C 1016.8 hPa North 3.8 km/h 2.9 km/h 77% 0.0 mm
01:49 23.2 °C 19.1 °C 1016.8 hPa North 3.2 km/h 2.9 km/h 77.8% 0.0 mm
01:54 23.1 °C 19.1 °C 1016.8 hPa North 1.3 km/h 2.3 km/h 78% 0.0 mm
01:59 23.1 °C 19.1 °C 1016.7 hPa North 4.8 km/h 2.3 km/h 78% 0.0 mm
02:04 23.1 °C 19.1 °C 1016.7 hPa North 3.8 km/h 2.3 km/h 78% 0.0 mm
02:09 23.1 °C 19.1 °C 1016.7 hPa North 3.7 km/h 2.3 km/h 78% 0.0 mm
Murcia-Puente Tocinos, Espa?a
Compliments of Weather Underground - 2 mb

La estación de MeteoMurcia.com, publica sus datos en los siguientes proyectos:

Weather Underground PWS IMURCIAP2 Meteoclimatic www.awekas.at

Web Analytics

Clicky